Hourly Data Report for August 08, 2013

All times are specified in Local Standard Time (LST). Add 1 hour to adjust for Daylight Saving Time where and when it is observed.

VICTORIA INTL A
BRITISH COLUMBIA

48°38'50.000" N
123°25'33.000" W
19.50 m
1018621
71799
YYJ

Download Data

Hourly Data (August 2013)
Hourly Data Report for August 8, 2013
Temp Definition
°C
Dew Point Temp Definition
°C
Rel Hum Definition
%
Wind Dir Definition
10's deg

Wind Spd Definition
km/h
Visibility Definition
km
Stn Press Definition
kPa
Hmdx Definition


Wind Chill Definition


Weather Definition


TIME
00:00 Legend Double Dagger 13.6 11.2 85 8 2 48.3 101.24     LegendNANA
01:00 Legend Double Dagger 13.4 11.3 87 6 4 48.3 101.26     Clear
02:00 Legend Double Dagger 12.9 11.3 90 6 1 48.3 101.27     LegendNANA
03:00 Legend Double Dagger 12.4 11.2 92 9 7 48.3 101.30     LegendNANA
04:00 Legend Double Dagger 12.3 11.2 93 2 5 48.3 101.32     Clear
05:00 Legend Double Dagger 12.2 11.4 95 7 3 48.3 101.35     LegendNANA
06:00 Legend Double Dagger 13.0 11.9 93 5 4 48.3 101.40     LegendNANA
07:00 Legend Double Dagger 15.2 12.7 85 8 7 48.3 101.43     Mainly Clear
08:00 Legend Double Dagger 16.2 12.8 80 10 8 48.3 101.43     LegendNANA
09:00 Legend Double Dagger 17.1 12.9 76 11 9 48.3 101.43     LegendNANA
10:00 Legend Double Dagger 19.0 13.5 70 12 10 48.3 101.41     Mainly Clear
11:00 Legend Double Dagger 18.8 13.1 69 12 15 48.3 101.41     LegendNANA
12:00 Legend Double Dagger 20.6 13.7 64 11 12 48.3 101.37     LegendNANA
13:00 Legend Double Dagger 19.6 12.9 65 13 17 48.3 101.33     Clear
14:00 Legend Double Dagger 20.9 13.0 60 12 13 48.3 101.30     LegendNANA
15:00 Legend Double Dagger 22.5 12.9 54 12 8 48.3 101.25 25   LegendNANA
16:00 Legend Double Dagger 22.5 12.3 52 11 10 48.3 101.20 25   Mainly Clear
17:00 Legend Double Dagger 22.6 10.9 47 9 7 48.3 101.15     LegendNANA
18:00 Legend Double Dagger 21.7 11.3 51 8 8 48.3 101.11     LegendNANA
19:00 Legend Double Dagger 19.3 9.0 51 7 9 48.3 101.10     Mainly Clear
20:00 Legend Double Dagger 17.7 9.7 59 13 3 48.3 101.10     LegendNANA
21:00 Legend Double Dagger 16.0 10.6 70 20 1 48.3 101.13     LegendNANA
22:00 Legend Double Dagger 15.6 9.8 68 13 6 48.3 101.16     Mainly Clear
23:00 Legend Double Dagger 14.8 10.1 73 2 3 48.3 101.18     LegendNANA

Notes on Data Quality.

Legend

  • E = Estimated
  • M = Missing
  • NA = Not Available
  • ‡ = Partner data that is not subject to review by the National Climate Archives
Date modified: